Location: *
(58.4167°N, 22.5000°E)
Time: 22:40:29
(UTC+00:00)

KORONAS-FOTON - Pass Details

Date: 22 September 2019
Orbit: 505 x 533 km, 82.4° (Epoch: 17 October)

Event Time Altitude Azimuth Distance (km) Brightness Sun altitude
Rises 17:38:02 0° 349° (N) 2,633 7.8 -9.5°
Reaches altitude 10° 17:40:14 10° 355° (N) 1,740 6.8 -9.8°
Maximum altitude 17:43:55 46° 70° (ENE) 693 4.1 -10.3°
Enters shadow 17:47:34 10° 145° (SE) 1,723 6.0 -10.7°
